TimeMST,TemperatureF,Dew PointF,Humidity,Sea Level PressureIn,VisibilityMPH,Wind Direction,Wind SpeedMPH,Gust SpeedMPH,PrecipitationIn,Events,Conditions,WindDirDegrees,DateUTC
12:56 AM,21.9,3.9,46,30.13,10.0,WSW,8.1,-,N/A,,Clear,250,2014-01-05 07:56:00
1:56 AM,19.9,1.9,46,30.15,10.0,Calm,Calm,-,N/A,,Clear,0,2014-01-05 08:56:00
2:56 AM,18.0,3.0,52,30.17,10.0,SSW,4.6,-,N/A,,Clear,200,2014-01-05 09:56:00
3:56 AM,14.0,3.0,62,30.19,10.0,WSW,4.6,-,N/A,,Clear,240,2014-01-05 10:56:00
4:56 AM,15.1,5.0,64,30.21,10.0,Calm,Calm,-,N/A,,Clear,0,2014-01-05 11:56:00
5:56 AM,12.9,5.0,71,30.24,10.0,SE,5.8,-,N/A,,Clear,130,2014-01-05 12:56:00
6:56 AM,12.9,5.0,71,30.30,10.0,ESE,4.6,-,N/A,,Clear,110,2014-01-05 13:56:00
7:56 AM,14.0,5.0,67,30.35,10.0,SE,3.5,-,N/A,,Clear,140,2014-01-05 14:56:00
8:56 AM,19.0,6.1,57,30.38,10.0,ESE,3.5,-,N/A,,Clear,120,2014-01-05 15:56:00
9:56 AM,26.1,7.0,44,30.39,10.0,Calm,Calm,-,N/A,,Clear,0,2014-01-05 16:56:00
10:56 AM,32.0,6.1,34,30.38,10.0,NNW,4.6,-,N/A,,Clear,340,2014-01-05 17:56:00
11:56 AM,37.0,3.0,24,30.33,10.0,Variable,5.8,-,N/A,,Clear,0,2014-01-05 18:56:00
12:56 PM,39.9,-0.9,18,30.31,10.0,North,8.1,-,N/A,,Clear,350,2014-01-05 19:56:00
1:56 PM,42.1,-4.0,14,30.28,10.0,NW,6.9,-,N/A,,Clear,310,2014-01-05 20:56:00
2:56 PM,43.0,-6.0,13,30.28,10.0,Variable,4.6,-,N/A,,Clear,0,2014-01-05 21:56:00
3:56 PM,42.1,-4.0,14,30.31,10.0,NNW,8.1,-,N/A,,Clear,330,2014-01-05 22:56:00
4:56 PM,39.9,-2.9,16,30.33,10.0,NW,6.9,-,N/A,,Clear,310,2014-01-05 23:56:00
5:56 PM,30.0,-2.9,24,30.38,10.0,West,6.9,-,N/A,,Clear,270,2014-01-06 00:56:00
6:56 PM,24.1,-2.9,31,30.41,10.0,West,8.1,-,N/A,,Clear,270,2014-01-06 01:56:00
7:56 PM,21.0,-0.0,40,30.44,10.0,WSW,4.6,-,N/A,,Clear,250,2014-01-06 02:56:00
8:56 PM,21.9,-0.0,38,30.44,10.0,Variable,3.5,-,N/A,,Clear,0,2014-01-06 03:56:00
9:56 PM,19.9,1.0,44,30.45,10.0,SSW,4.6,-,N/A,,Clear,200,2014-01-06 04:56:00
10:56 PM,18.0,1.0,48,30.45,10.0,Calm,Calm,-,N/A,,Clear,0,2014-01-06 05:56:00
11:56 PM,17.1,1.0,50,30.44,10.0,SW,3.5,-,N/A,,Clear,220,2014-01-06 06:56:00